Chalkyitsik, AK

2:23 PM AKST on February 10, 2016 (GMT -0900)
Fort Yukon

Weather History for PFYU - November, 2012

Change the Weather History Date:

Thursday, November 22, 2012

  Actual Average Record
Temperature  
Mean Temperature -1 °F -  
Max Temperature 3 °F 0 °F 23 °F (2007)
Min Temperature -5 °F -9 °F -41 °F (2006)
Degree Days  
Heating Degree Days 66    
Moisture  
Dew Point -21 °F    
Average Humidity 45    
Maximum Humidity 78    
Minimum Humidity 4    
Precipitation  
Precipitation 0.00 in - - ()
Sea Level Pressure  
Sea Level Pressure 30.29 in    
Wind  
Wind Speed 6 mph (NE)    
Max Wind Speed 13 mph    
Max Gust Speed 18 mph    
Visibility 10 miles    
Events      
Averages and records for this station are not official NWS values.
T = Trace of Precipitation, MM = Missing Value Source: NWS Daily Summary

Daily Weather History Graph

Daily Weather History Graph

Search for Another Location

Airport or City:

Trip Planner

Search our weather history database for the weather conditions in past years. The results will help you decide how hot, cold, wet, or windy it might be!

Date:

Astronomy

Nov. 22, 2012 Rise Set
Actual Time 10:06 AM AKST 2:47 PM AKST
Civil Twilight 8:47 AM AKST 4:06 PM AKST
Nautical Twilight 7:36 AM AKST 5:17 PM AKST
Astronomical Twilight 6:33 AM AKST 6:20 PM AKST
Moon 1:48 PM AKST (11/22) 2:12 AM AKST (11/22)
Length of Visible Light 7h 18m
Length of Day
4h 41m
Waxing Gibbous, 72% of the Moon is Illuminated
Nov 22
Waxing Gibbous
Nov 28
Full
Dec 6
Last Quarter
Dec 12
New
Dec 19
First Quarter

Hourly Weather History & Observations

Time (AKST) Temp. Windchill Dew Point Humidity Pressure Visibility Wind Dir Wind Speed Gust Speed Precip Events Conditions
12:16 AM -2.2 °F - -25.6 °F 32% 30.26 in 10.0 mi Calm Calm - N/A   Overcast
12:36 AM -0.4 °F - -20.2 °F 39% 30.26 in 10.0 mi Calm Calm - N/A   Overcast
12:56 AM -0.4 °F - -9.4 °F 66% 30.26 in 10.0 mi Calm Calm - N/A   Overcast
1:16 AM -0.4 °F - - N/A% 30.26 in 10.0 mi Calm Calm - N/A   Overcast
1:36 AM -0.4 °F - -18.4 °F 43% 30.27 in 10.0 mi Calm Calm - N/A   Overcast
1:56 AM 1.4 °F - -20.2 °F 36% 30.27 in 10.0 mi Calm Calm - N/A   Overcast
2:16 AM 1.4 °F - -11.2 °F 56% 30.27 in 9.0 mi Calm Calm - N/A   Overcast
2:36 AM -0.4 °F - -7.6 °F 72% 30.27 in 7.0 mi Calm Calm - N/A   Overcast
2:56 AM -0.4 °F -8.3 °F -29.2 °F 25% 30.27 in 10.0 mi NE 3.5 mph - N/A   Overcast
3:16 AM 3.2 °F -6.2 °F -11.2 °F 51% 30.28 in 10.0 mi ENE 4.6 mph - N/A   Overcast
3:36 AM 3.2 °F -9.1 °F -14.8 °F 43% 30.28 in 10.0 mi NE 6.9 mph - N/A   Overcast
3:56 AM 3.2 °F -7.8 °F -14.8 °F 43% 30.28 in 10.0 mi ENE 5.8 mph - N/A   Overcast
4:16 AM 3.2 °F -10.3 °F -2.2 °F 78% 30.29 in 10.0 mi NE 8.1 mph - N/A   Overcast
4:36 AM 3.2 °F -10.3 °F - N/A% 30.29 in 10.0 mi NE 8.1 mph - N/A   Overcast
4:56 AM 3.2 °F -9.1 °F -25.6 °F 25% 30.29 in 10.0 mi ENE 6.9 mph - N/A   Overcast
5:16 AM - - - N/A% 30.29 in 10.0 mi NE 9.2 mph - N/A   Overcast
5:36 AM - - - N/A% 30.29 in 10.0 mi ENE 8.1 mph - N/A   Overcast
5:56 AM - - - N/A% 30.29 in 10.0 mi NE 9.2 mph - N/A   Overcast
6:16 AM - - - N/A% 30.29 in 10.0 mi NE 10.4 mph - N/A   Overcast
6:36 AM - - - N/A% 30.30 in 10.0 mi ENE 11.5 mph 17.3 mph N/A   Overcast
6:56 AM - - - N/A% 30.30 in 10.0 mi ENE 12.7 mph 18.4 mph N/A   Overcast
7:16 AM - - - N/A% 30.29 in 10.0 mi ENE 12.7 mph - N/A   Overcast
7:36 AM 3.2 °F -13.9 °F -14.8 °F 43% 30.31 in 10.0 mi ENE 12.7 mph 17.3 mph N/A   Overcast
7:56 AM - - - N/A% 30.30 in 10.0 mi NE 11.5 mph - N/A   Overcast
8:16 AM - - - N/A% 30.31 in 10.0 mi ENE 10.4 mph - N/A   Overcast
8:36 AM 3.2 °F -13.9 °F -11.2 °F 51% 30.31 in 10.0 mi ENE 12.7 mph 17.3 mph N/A   Overcast
8:56 AM 1.4 °F -14.5 °F -18.4 °F 39% 30.32 in 10.0 mi ENE 10.4 mph 16.1 mph N/A   Overcast
9:16 AM 1.4 °F -13.5 °F -25.6 °F 27% 30.32 in 10.0 mi NE 9.2 mph - N/A   Scattered Clouds
9:36 AM -0.4 °F -16.7 °F -18.4 °F 43% 30.33 in 10.0 mi NE 10.4 mph - N/A   Scattered Clouds
9:56 AM -0.4 °F -15.7 °F -11.2 °F 60% 30.33 in 10.0 mi ENE 9.2 mph - N/A   Scattered Clouds
10:16 AM -0.4 °F -13.4 °F -7.6 °F 72% 30.34 in 10.0 mi NE 6.9 mph - N/A   Partly Cloudy
10:36 AM -2.2 °F -14.2 °F - N/A% 30.34 in 10.0 mi NE 5.8 mph - N/A   Clear
10:56 AM -2.2 °F -15.6 °F -23.8 °F 35% 30.34 in 10.0 mi NE 6.9 mph - N/A   Clear
11:16 AM -2.2 °F -16.8 °F -11.2 °F 66% 30.34 in 10.0 mi NE 8.1 mph - N/A   Clear
11:36 AM -0.4 °F -16.7 °F -9.4 °F 66% 30.34 in 10.0 mi NE 10.4 mph - N/A   Clear
11:56 AM -0.4 °F -16.7 °F -7.6 °F 72% 30.33 in 10.0 mi NE 10.4 mph - N/A   Clear
12:16 PM -0.4 °F -16.7 °F -7.6 °F 72% 30.33 in 10.0 mi NE 10.4 mph - N/A   Clear
12:36 PM -0.4 °F -15.7 °F -7.6 °F 72% 30.33 in 10.0 mi NE 9.2 mph - N/A   Clear
12:56 PM -0.4 °F -16.7 °F -9.4 °F 66% 30.33 in 10.0 mi NE 10.4 mph - N/A   Clear
1:16 PM -0.4 °F -15.7 °F -7.6 °F 72% 30.32 in 10.0 mi NE 9.2 mph - N/A   Clear
1:36 PM -0.4 °F -16.7 °F -16.6 °F 46% 30.32 in 10.0 mi NE 10.4 mph - N/A   Clear
1:56 PM -0.4 °F -16.7 °F -18.4 °F 43% 30.31 in 10.0 mi NE 10.4 mph - N/A   Clear
2:16 PM -0.4 °F -15.7 °F -23.8 °F 32% 30.31 in 10.0 mi ENE 9.2 mph - N/A   Clear
2:36 PM -0.4 °F -15.7 °F -20.2 °F 39% 30.31 in 10.0 mi NE 9.2 mph - N/A   Clear
2:56 PM -2.2 °F -15.6 °F -94.0 °F 4% 30.30 in 10.0 mi NE 6.9 mph - N/A   Clear
3:16 PM -2.2 °F -15.6 °F - N/A% 30.30 in 10.0 mi NE 6.9 mph - N/A   Clear
3:36 PM -2.2 °F -15.6 °F -25.6 °F 32% 30.30 in 10.0 mi NE 6.9 mph - N/A   Clear
3:56 PM -2.2 °F -15.6 °F -27.4 °F 29% 30.30 in 10.0 mi NE 6.9 mph - N/A   Clear
4:16 PM -2.2 °F -15.6 °F -27.4 °F 29% 30.29 in 10.0 mi NE 6.9 mph - N/A   Clear
4:36 PM -2.2 °F -15.6 °F -22.0 °F 39% 30.29 in 10.0 mi NE 6.9 mph - N/A   Clear
4:56 PM -4.0 °F -19.0 °F -16.6 °F 55% 30.29 in 10.0 mi NE 8.1 mph - N/A   Clear
5:16 PM -4.0 °F -17.8 °F -13.0 °F 65% 30.29 in 10.0 mi NE 6.9 mph - N/A   Clear
5:36 PM -5.8 °F -18.4 °F -16.6 °F 60% 30.29 in 10.0 mi NE 5.8 mph - N/A   Clear
5:56 PM -5.8 °F -18.4 °F -25.6 °F 38% 30.29 in 10.0 mi NE 5.8 mph - N/A   Clear
6:16 PM -4.0 °F -20.2 °F - N/A% 30.29 in 10.0 mi NE 9.2 mph - N/A   Clear
6:36 PM -2.2 °F -16.8 °F -25.6 °F 32% 30.29 in 10.0 mi NE 8.1 mph - N/A   Clear
6:56 PM -4.0 °F -17.8 °F -29.2 °F 29% 30.29 in 10.0 mi NE 6.9 mph - N/A   Clear
7:16 PM -4.0 °F -19.0 °F -25.6 °F 35% 30.28 in 10.0 mi NE 8.1 mph - N/A   Clear
7:36 PM -2.2 °F -16.8 °F -18.4 °F 46% 30.28 in 10.0 mi NE 8.1 mph - N/A   Clear
7:56 PM -2.2 °F -16.8 °F -14.8 °F 55% 30.28 in 10.0 mi NE 8.1 mph - N/A   Clear
8:16 PM -2.2 °F -16.8 °F -11.2 °F 66% 30.28 in 10.0 mi NE 8.1 mph - N/A   Clear
8:36 PM -4.0 °F -19.0 °F -20.2 °F 46% 30.27 in 10.0 mi NE 8.1 mph - N/A   Clear
8:56 PM -4.0 °F -17.8 °F -20.2 °F 46% 30.26 in 10.0 mi NE 6.9 mph - N/A   Clear
9:16 PM -4.0 °F -19.0 °F - N/A% 30.26 in 10.0 mi NE 8.1 mph - N/A   Clear
9:36 PM -2.2 °F -14.2 °F -31.0 °F 24% 30.27 in 10.0 mi NE 5.8 mph - N/A   Clear
9:56 PM -4.0 °F -14.6 °F -29.2 °F 29% 30.27 in 10.0 mi NE 4.6 mph - N/A   Clear
10:16 PM -4.0 °F -17.8 °F -25.6 °F 35% 30.27 in 10.0 mi NE 6.9 mph - N/A   Clear
10:36 PM -4.0 °F -17.8 °F -20.2 °F 46% 30.26 in 10.0 mi NE 6.9 mph - N/A   Clear
10:56 PM -2.2 °F -14.2 °F -9.4 °F 71% 30.26 in 10.0 mi ENE 5.8 mph - N/A   Clear
11:16 PM -4.0 °F -17.8 °F -16.6 °F 55% 30.26 in 10.0 mi NE 6.9 mph - N/A   Clear
11:36 PM -2.2 °F -15.6 °F - N/A% 30.26 in 10.0 mi NE 6.9 mph - N/A   Clear
11:56 PM -2.2 °F -16.8 °F -27.4 °F 29% 30.26 in 10.0 mi NE 8.1 mph - N/A   Clear